Alamosa, CO

9:09 AM MST on January 17, 2018 (GMT -0700)
San Luis Valley Regional / Bergman Field

Weather History for KALS - July, 2013

Change the Weather History Date:

Wednesday, July 10, 2013

  Actual Average Record
Temperature  
Mean Temperature 67 °F 65 °F  
Max Temperature 86 °F 83 °F 91 °F (2003)
Min Temperature 47 °F 47 °F 37 °F (1982)
Degree Days  
Heating Degree Days 0 1  
Month to date heating degree days 8 19  
Since 1 June heating degree days 110 187  
Since 1 July heating degree days 8 19  
Cooling Degree Days 2 1  
Month to date cooling degree days 15 10  
Year to date cooling degree days 31 16  
Since 1 June cooling degree days 31 16  
Growing Degree Days 17 (Base 50)    
Moisture  
Dew Point 45 °F    
Average Humidity 51    
Maximum Humidity 80    
Minimum Humidity 22    
Precipitation  
Precipitation 0.00 in 0.03 in 0.40 in (1933)
Month to date precipitation 0.16 0.27  
Year to date precipitation 1.77 2.98  
Snow  
Snow 0.00 in 0.00 in 0.00 in (2002)
Month to date snowfall 0.0 0.0  
Since 1 June snowfall 0.0 0.0  
Since 1 July snowfall 0.0 0.0  
Snow Depth 0.00 in    
Sea Level Pressure  
Sea Level Pressure 30.07 in    
Wind  
Wind Speed 8 mph (SSW)    
Max Wind Speed 29 mph    
Max Gust Speed 38 mph    
Visibility 10 miles    
Events      
T = Trace of Precipitation, MM = Missing Value Source: NWS Daily Summary

Daily Weather History Graph

Daily Weather History Graph

Search for Another Location

Airport or City:

Trip Planner

Search our weather history database for the weather conditions in past years. The results will help you decide how hot, cold, wet, or windy it might be!

Date:

Astronomy

Jul. 10, 2013 Rise Set
Actual Time 5:51 AM MDT 8:26 PM MDT
Civil Twilight 5:20 AM MDT 8:56 PM MDT
Nautical Twilight 4:42 AM MDT 9:34 PM MDT
Astronomical Twilight 4:00 AM MDT 10:16 PM MDT
Moon 8:11 AM MDT (7/10) 9:42 PM MDT (7/10)
Length of Visible Light 15h 35m
Length of Day
14h 34m
Waxing Crescent, 5% of the Moon is Illuminated
Jul 10
Waxing Crescent
Jul 15
First Quarter
Jul 22
Full
Jul 29
Last Quarter
Aug 6
New

Hourly Weather History & Observations

Time (MDT) Temp. Dew Point Humidity Pressure Visibility Wind Dir Wind Speed Gust Speed Precip Events Conditions
12:52 AM 61.0 °F 44.1 °F 54% 30.06 in 10.0 mi South 9.2 mph - N/A   Clear
1:52 AM 57.0 °F 44.1 °F 62% 30.06 in 10.0 mi SSW 9.2 mph - N/A   Clear
2:52 AM 57.0 °F 45.0 °F 64% 30.06 in 10.0 mi SW 3.5 mph - N/A   Partly Cloudy
3:52 AM 55.0 °F 45.0 °F 69% 30.06 in 10.0 mi West 3.5 mph - N/A   Scattered Clouds
4:52 AM 50.0 °F 43.0 °F 77% 30.10 in 10.0 mi Calm Calm - N/A   Clear
5:52 AM 48.9 °F 43.0 °F 80% 30.13 in 10.0 mi SE 4.6 mph - N/A   Scattered Clouds
6:52 AM 54.0 °F 44.1 °F 69% 30.13 in 10.0 mi Calm Calm - N/A   Clear
7:52 AM 64.0 °F 46.9 °F 54% 30.11 in 10.0 mi ENE 4.6 mph - N/A   Clear
8:52 AM 68.0 °F 46.0 °F 45% 30.11 in 10.0 mi Calm Calm - N/A   Clear
9:52 AM 73.9 °F 45.0 °F 35% 30.10 in 10.0 mi WSW 3.5 mph - N/A   Clear
10:52 AM 78.1 °F 46.0 °F 32% 30.08 in 10.0 mi Variable 5.8 mph - N/A   Clear
11:52 AM 80.1 °F 45.0 °F 29% 30.06 in 10.0 mi South 4.6 mph - N/A   Clear
12:52 PM 79.0 °F 45.0 °F 30% 30.06 in 10.0 mi SW 6.9 mph - N/A   Clear
1:52 PM 84.0 °F 45.0 °F 25% 30.03 in 10.0 mi WSW 18.4 mph 24.2 mph N/A   Clear
2:52 PM 82.9 °F 39.0 °F 21% 30.01 in 10.0 mi WSW 13.8 mph - N/A   Clear
3:52 PM 80.1 °F 44.1 °F 28% 30.02 in 10.0 mi NW 21.9 mph 34.5 mph N/A   Clear
4:52 PM 81.0 °F 39.0 °F 22% 30.02 in 10.0 mi WSW 5.8 mph - N/A   Clear
5:24 PM 75.2 °F 46.4 °F 36% 30.33 in 10.0 mi South 20.7 mph 29.9 mph N/A   Scattered Clouds
5:52 PM 77.0 °F 48.0 °F 36% 30.05 in 10.0 mi SSW 21.9 mph 33.4 mph N/A   Partly Cloudy
6:52 PM 72.0 °F 48.0 °F 43% 30.04 in 10.0 mi South 19.6 mph - N/A   Clear
7:52 PM 66.9 °F 48.9 °F 52% 30.03 in 10.0 mi South 9.2 mph - N/A   Clear
8:52 PM 64.9 °F 46.9 °F 52% 30.03 in 10.0 mi SE 11.5 mph - N/A   Clear
9:52 PM 62.1 °F 48.0 °F 60% 30.04 in 10.0 mi SE 10.4 mph - N/A   Clear
10:52 PM 59.0 °F 46.9 °F 64% 30.05 in 10.0 mi SSE 6.9 mph - N/A   Clear
11:52 PM 55.0 °F 46.0 °F 72% 30.06 in 10.0 mi East 3.5 mph - N/A   Partly Cloudy